Weather History for Watsonville, CA

Change the Weather History Date:

Monday, April 9, 2012

  Actual Average Record
Temperature  
Mean Temperature 55 °F 55 °F  
Max Temperature 68 °F 66 °F 77 °F (2013)
Min Temperature 41 °F 44 °F 37 °F (2011)
Degree Days  
Heating Degree Days 10    
Month to date heating degree days 88  
Since 1 July heating degree days 2203  
Cooling Degree Days 0    
Month to date cooling degree days 0  
Year to date cooling degree days 0  
Growing Degree Days 4 (Base 50)    
Moisture  
Dew Point 39 °F    
Average Humidity 55    
Maximum Humidity 72    
Minimum Humidity 37    
Precipitation  
Precipitation 0.00 in - 0.75 in (1965)
Month to date precipitation 0.02  
Year to date precipitation 8.70  
Since 1 July precipitation 12.99  
Sea Level Pressure  
Sea Level Pressure 29.96 in    
Wind  
Wind Speed 4 mph (West)    
Max Wind Speed 14 mph    
Max Gust Speed 29 mph    
Visibility 10 miles    
Events      
T = Trace of Precipitation, MM = Missing Value Source: NWS Daily Summary

Daily Weather History Graph

Daily Weather History Graph

Search for Another Location

Airport:

Trip Planner

Search our weather history database for the weather conditions in past years. The results will help you decide how hot, cold, wet, or windy it might be!

Date:

Astronomy

Apr. 09, 2012 Rise Set
Actual Time 6:40 AM PDT 7:37 PM PDT
Civil Twilight 6:14 AM PDT 8:03 PM PDT
Nautical Twilight 5:42 AM PDT 8:35 PM PDT
Astronomical Twilight 5:10 AM PDT 9:07 PM PDT
Moon 11:32 PM PDT (4/9) 8:38 AM PDT (4/9)
Length of Visible Light 13h 49m
Length of Day
12h 56m
Waning Gibbous, 87% of the Moon is Illuminated
Apr 9
Waning Gibbous
Apr 13
Last Quarter
Apr 21
New
Apr 29
First Quarter
May 5
Full

Hourly Weather History & Observations

Time (PDT) Temp. Windchill Dew Point Humidity Pressure Visibility Wind Dir Wind Speed Gust Speed Precip Events Conditions
12:53 AM 45.0 °F 41.8 °F 35.1 °F 68% 30.03 in 10.0 mi NW 5.8 mph - N/A   Clear
1:53 AM 45.0 °F 42.6 °F 30.9 °F 58% 30.02 in 10.0 mi NW 4.6 mph - N/A   Clear
2:53 AM 44.1 °F 42.5 °F 35.1 °F 71% 30.02 in 10.0 mi West 3.5 mph - N/A   Clear
3:53 AM 43.0 °F 41.3 °F 33.1 °F 68% 30.02 in 10.0 mi North 3.5 mph - N/A   Clear
4:53 AM 42.1 °F - 33.1 °F 70% 30.01 in 10.0 mi Calm Calm - N/A   Partly Cloudy
5:53 AM 43.0 °F 39.5 °F 32.0 °F 65% 30.01 in 10.0 mi NW 5.8 mph - N/A   Clear
6:53 AM 42.1 °F - 32.0 °F 67% 30.01 in 10.0 mi Calm Calm - N/A   Clear
7:53 AM 46.9 °F - 36.0 °F 66% 30.00 in 10.0 mi Calm Calm - N/A   Clear
8:53 AM 52.0 °F - 43.0 °F 71% 29.99 in 10.0 mi East 3.5 mph - N/A   Clear
9:53 AM 55.9 °F - 43.0 °F 62% 29.99 in 10.0 mi Calm Calm - N/A   Clear
10:53 AM 61.0 °F - 37.0 °F 41% 29.98 in 10.0 mi Calm Calm - N/A   Clear
11:53 AM 64.9 °F - 37.9 °F 37% 29.95 in 10.0 mi Variable 3.5 mph - N/A   Clear
12:53 PM 66.9 °F - 42.1 °F 40% 29.93 in 10.0 mi SSW 4.6 mph - N/A   Clear
1:53 PM 66.0 °F - 41.0 °F 40% 29.93 in 10.0 mi SW 6.9 mph - N/A   Clear
2:53 PM 66.9 °F - 39.9 °F 37% 29.91 in 10.0 mi SSW 8.1 mph - N/A   Clear
3:53 PM 63.0 °F - 41.0 °F 45% 29.89 in 10.0 mi SW 8.1 mph - N/A   Clear
4:53 PM 62.1 °F - 37.0 °F 39% 29.91 in 10.0 mi West 4.6 mph - N/A   Clear
5:53 PM 60.1 °F - 41.0 °F 49% 29.90 in 10.0 mi SW 11.5 mph - N/A   Clear
6:42 PM 55.4 °F - 46.4 °F 72% 29.92 in 10.0 mi WSW 11.5 mph 19.6 mph N/A   Mostly Cloudy
6:53 PM 55.9 °F - 46.0 °F 69% 29.93 in 10.0 mi West 8.1 mph 16.1 mph N/A   Overcast
7:53 PM 55.0 °F - 46.0 °F 72% 29.94 in 10.0 mi WSW 12.7 mph 18.4 mph N/A   Overcast
8:53 PM 54.0 °F - 44.1 °F 69% 29.94 in 10.0 mi West 3.5 mph - N/A   Scattered Clouds
9:53 PM 54.0 °F - 44.1 °F 69% 29.93 in 10.0 mi NW 4.6 mph - N/A   Clear
10:53 PM 53.1 °F - 44.1 °F 71% 29.92 in 10.0 mi WNW 3.5 mph - N/A   Clear
11:53 PM 52.0 °F - 43.0 °F 71% 29.92 in 10.0 mi Calm Calm - N/A   Clear